Regional Weather Roundup
Issued by NWS Charleston, SC

Current Version | Previous Version | Graphics & Text | Print | Product List | Glossary On
Versions: 1 2 3 4 5 6 7 8 9 10 11 12 13 14 15 16 17 18 19 20 21 22 23 24 25 26 27 28 29 30 31 32 33 34 35 36 37 38 39 40 41 42 43 44 45 46 47 48 49 50
000 ASUS42 KCHS 221625 RWRCHS REGIONAL WEATHER ROUNDUP NATIONAL WEATHER SERVICE CHARLESTON SC 1100 AM EST SAT NOV 22 2014 NOTE: "FAIR" INDICATES FEW OR NO CLOUDS BELOW 12,000 FEET WITH NO SIGNIFICANT WEATHER AND/OR OBSTRUCTIONS TO VISIBILITY. NOT ALL STATIONS ARE QUALITY CONTROLLED BY THE NATIONAL WEATHER SERVICE. USE DATA WITH CAUTION...ESPECIALLY DEWPOINT OBSERVATIONS. SCZ027-030-031-034>040-042>050-221700- ...SOUTHEAST SOUTH CAROLINA... CITY SKY/WX TMP DP RH WIND PRES REMARKS N CHARLESTON SUNNY 59 37 44 E7 30.50F WATERFRONT PRK N/A 57 N/A N/A NE15 N/A MOUNT PLEASANT FAIR 61 45 55 E8 30.49F JOHNS ISLAND SUNNY 61 46 59 NE16 30.48F PINOPOLIS N/A 52 39 62 NE5 30.42F MONCKS CORNER FAIR 59 41 51 E3 30.49F SUMMERVILLE FAIR 59 32 36 NE7 30.49F BEAUFORT MCAS SUNNY 60 43 53 NE8G18 30.47F BEAUFORT ARPT FAIR 59 46 63 NE16 30.45F HILTON HEAD IS SUNNY N/A N/A N/A N8G18 30.46F WALTERBORO SUNNY 59 27 29 E10 30.48F ALLENDALE FAIR 59 28 31 VRB6 30.47F ...SOUTHERN MIDLANDS AND PEE DEE... CITY SKY/WX TMP DP RH WIND PRES REMARKS GEORGETOWN NOT AVBL KINGSTREE NOT AVBL ORANGEBURG SUNNY 53 30 41 E8 30.51F BARNWELL FAIR 57 30 35 E9 30.49F AIKEN FAIR 54 19 26 E8 30.51F MANNING NOT AVBL COLUMBIA SUNNY 49 18 29 E6 30.52F SUMTER SUNNY 49 27 41 NE6 30.52F FLORENCE SUNNY 49 28 44 VRB5 30.54F MYRTLE BEACH SUNNY 55 39 54 E13 30.54F N MYRTLE BEACH SUNNY 55 39 54 VRB6 30.52F $$ GAZ063-065-086>088-099>101-113>116-118-119-134>141-150-221700- ...SOUTHEAST GEORGIA... CITY SKY/WX TMP DP RH WIND PRES REMARKS SAVANNAH ARPT MOSUNNY 63 44 50 NE13G21 30.45F HUNTER AAF MOSUNNY 61 48 62 NE10G21 30.43F FORT STEWART SUNNY 63 47 56 NE9 30.42F STATESBORO NOT AVBL SYLVANIA SUNNY 63 27 25 E14 30.47F CLAXTON FAIR 63 43 48 E12 30.45S ...CSRA...CENTRAL AND FAR SOUTHEAST GEORGIA... CITY SKY/WX TMP DP RH WIND PRES REMARKS THOMSON SUNNY 54 31 42 E6 30.52F AUGUSTA-BUSH SUNNY 55 19 24 E7 30.50F AUGUSTA-DANIEL SUNNY 53 21 28 E9 30.49F SWAINSBORO PTSUNNY 61 30 31 E14 30.46F VIDALIA CLOUDY 61 43 51 NE9 30.43F HAZLEHURST PTSUNNY 62 46 56 NE12 30.40F ALMA SUNNY 63 46 54 NE13 30.40F WAYCROSS CLOUDY 69 54 59 E13G22 30.38F JESUP FAIR 70 54 56 E14 30.40F BAXLEY FAIR 64 46 52 E14G21 30.40F BRUNSWICK N/A 66 54 63 NE16G24 30.39F SAINT SIMONS CLOUDY 64 55 72 NE15 30.38F $$ SCZ027-028-034-036>038-045-046-048>050-GAZ119-141-221700- ...LAKE AND SUPPLEMENTAL COASTAL OBSERVATIONS... STATION/POSITION TIME TEMP WIND PRES WAVE SWELL AIR SEA DIR/SP/G HT/PER HT/PER/DIR (UTC) (F) (DEG/KT/KT) (MB) (FT/S) (FT/S/D) UPR LAKE MARION NOT AVBL WINYAH BAY 1600 51 40/ 9 1033.0S LAKE MURRAY 1600 47 70/ 3/ 8 1032.8F ACE BASIN NERRS 1600 58 60/ 7 1032.0S FORT PULASKI 1600 56 50/ 16/ 23 1031.1F SAPELO ISLAND NOT AVBL $$ ANZ835-935-AMZ111-154-330-350-352-354-370-450-454-472-221700- ...C-MAN AND BUOY OBSERVATIONS... STATION/POSITION TIME TEMP WIND PRES WAVE SWELL AIR SEA DIR/SP/G HT/PER HT/PER/DIR (UTC) (F) (DEG/KT/KT) (MB) (FT/S) (FT/S/D) FOLLY BEACH CMAN 1600 55 40/ 19/ 21 1032.6F BUOY 41004 1600 62 75 30/ 14/ 17 1031.7F 4/ 8 2/ 8 BUOY 41008 1600 66 64 70/ 21/ 25 1028.7F 6/ 6 CAPERS NEARSHORE 1500 54 50/ 16/ 19 N/A FRIPP NEARSHORE NOT AVBL STATION/POSITION TIME TEMP WIND PRES WAVE SWELL AIR SEA DIR/SP/G HT/PER HT/PER/DIR (UTC) (F) (DEG/KT/KT) (MB) (FT/S) (FT/S/D) 5E ST. MARYS GA 1600 62 N/A 6/ 7 FRYING PAN BUOY 1600 58 63 50/ 14/ 17 1033.2F 4/ 9 2/ 90/ 9 BUOY 41025 1600 54 20/ 6/ 8 1034.5F 3/ 8 3/ 50/ 8 CAPE LOOKOUT NC 1600 49 30/ 13/ 15 1033.8F BUOY 41002 1502 63 73 60/ 12/ 16 1032.2R 5/10 5/ 20/10 BUOY 41010 1600 72 78 70/ 23/ 27 1026.6R 9/ 7 5/100/ 8 ST AUGUSTINE FL 1600 68 110/ 14/ 15 1027.3F $$

USA.gov is the U.S. government's official web portal to all federal, state and local government web resources and services.